Location: Cañada de la Miga
(34.7595°N, 106.2317°W)
Time: 07:56:45
(UTC+00:00)

Transit 4A - Pass Details

Date: 09 December 2021
Orbit: 864 x 980 km, 66.8° (Epoch: 16 January)

Event Time Altitude Azimuth Distance (km) Brightness Sun altitude
Rises 01:47:10 0° 232° (SW) 3,446 12.0 -22.6°
Reaches altitude 10° 01:49:52 10° 243° (WSW) 2,523 11.2 -23.2°
Maximum altitude 01:55:02 32° 305° (NW) 1,480 9.3 -24.2°
Enters shadow 01:59:46 13° 4° (N) 2,407 9.9 -25.2°
Drops below altitude 10° 02:00:22 10° 8° (N) 2,595 - -25.3°
Sets 02:03:12 0° 18° (NNE) 3,560 - -25.9°
